| time (UTC) | temp F | wind direction | speed MPH | gust MPH | rain 1hr in | rain 24hr in | rain mn in | humidity % | barometer mb |
| 20260505062005 | 53 | 266 | 0.0 | 0.0 | 0.00 | 0.00 | 0.00 | 86 | 1009.6 |
| 20260505055830 | 53 | 266 | 0.0 | 0.0 | 0.00 | 0.00 | 0.00 | 86 | 1009.2 |
| 20260505052519 | 54 | 266 | 0.0 | 0.0 | 0.00 | 0.00 | 0.00 | 85 | 1009.1 |
| 20260505051453 | 54 | 266 | 0.0 | 0.0 | 0.00 | 0.00 | 0.00 | 84 | 1009.0 |
| 20260505050455 | 55 | 266 | 0.0 | 0.0 | 0.00 | 0.00 | 0.00 | 84 | 1008.9 |
| 20260505041241 | 56 | 266 | 0.0 | 0.0 | 0.00 | 0.00 | 0.00 | 82 | 1008.5 |
| 20260505040220 | 56 | 266 | 0.0 | 0.0 | 0.00 | 0.00 | 0.00 | 81 | 1008.3 |
| 20260505035221 | 57 | 266 | 0.0 | 0.0 | 0.00 | 0.00 | 0.00 | 82 | 1008.2 |
| 20260505034230 | 57 | 266 | 0.0 | 0.0 | 0.00 | 0.00 | 0.00 | 82 | 1008.0 |
| 20260505033159 | 58 | 266 | 0.0 | 0.0 | 0.00 | 0.00 | 0.00 | 81 | 996.3 |
| 20260505031003 | 58 | 266 | 0.0 | 0.0 | 0.00 | 0.00 | 0.00 | 81 | 996.3 |
| 20260505030024 | 58 | 266 | 0.0 | 0.0 | 0.00 | 0.00 | 0.00 | 80 | 996.3 |
| 20260505025032 | 58 | 266 | 0.0 | 0.0 | 0.00 | 0.00 | 0.00 | 80 | 996.3 |
| 20260505024033 | 60 | 266 | 0.0 | 0.0 | 0.00 | 0.00 | 0.00 | 79 | 996.3 |
| 20260505023010 | 60 | 266 | 0.0 | 0.0 | 0.00 | 0.00 | 0.00 | 78 | 996.3 |
| 20260505020819 | 61 | 266 | 0.0 | 0.0 | 0.00 | 0.00 | 0.00 | 76 | 973.9 |
| 20260505015825 | 62 | 266 | 0.0 | 0.0 | 0.00 | 0.00 | 0.00 | 74 | 925.5 |
| 20260505014824 | 62 | 266 | 0.0 | 0.0 | 0.00 | 0.00 | 0.00 | 73 | 925.5 |
| 20260505013828 | 64 | 263 | 0.0 | 0.0 | 0.00 | 0.00 | 0.00 | 69 | 925.5 |
| 20260505011645 | 65 | 258 | 0.0 | 0.0 | 0.00 | 0.00 | 0.00 | 67 | 925.5 |
| 20260505010652 | 66 | 267 | 0.0 | 1.0 | 0.00 | 0.00 | 0.00 | 68 | 910.2 |
| 20260505005619 | 67 | 267 | 1.0 | 77.0 | 0.00 | 0.00 | 0.00 | 63 | 910.2 |
| 20260505004624 | 69 | 254 | 1.0 | 16.0 | 0.00 | 0.00 | 0.00 | 55 | 910.2 |
| 20260505003606 | 71 | 294 | 0.0 | 13.0 | 0.00 | 0.00 | 0.00 | 51 | 905.3 |
| 20260505002627 | 71 | 348 | 1.0 | 8.0 | 0.00 | 0.00 | 0.00 | 51 | 905.3 |
| 20260505001558 | 71 | 350 | 1.0 | 13.0 | 0.00 | 0.00 | 0.00 | 51 | 905.3 |
| 20260505000606 | 73 | 342 | 2.0 | 16.0 | 0.00 | 0.00 | 0.00 | 49 | 905.3 |
| 20260504235537 | 73 | 304 | 0.0 | 19.0 | 0.00 | 0.00 | 0.00 | 50 | 912.3 |
| 20260504234508 | 72 | 290 | 0.0 | 0.0 | 0.00 | 0.00 | 0.00 | 56 | 901.1 |
| 20260504233529 | 71 | 263 | 0.0 | 12.0 | 0.00 | 0.00 | 0.00 | 61 | 925.3 |
| 20260504232503 | 69 | 252 | 0.0 | 41.0 | 0.00 | 0.00 | 0.00 | 61 | 925.3 |
| 20260504231446 | 67 | 242 | 0.0 | 8.0 | 0.00 | 0.00 | 0.00 | 63 | 925.3 |
| 20260504221055 | 74 | 260 | 0.0 | 0.0 | 0.00 | 0.00 | 0.00 | 62 | 922.0 |
| 20260504220023 | 77 | 251 | 0.0 | 1.0 | 0.00 | 0.00 | 0.00 | 56 | 896.3 |
| 20260504215020 | 73 | 250 | 0.0 | 3.0 | 0.00 | 0.00 | 0.00 | 56 | 896.3 |
| 20260504214008 | 73 | 244 | 0.0 | 0.0 | 0.00 | 0.00 | 0.00 | 54 | 922.6 |
| 20260504212948 | 71 | 239 | 0.0 | 1.0 | 0.00 | 0.00 | 0.00 | 59 | 902.0 |
| 20260504212011 | 71 | 235 | 0.0 | 5.0 | 0.00 | 0.00 | 0.00 | 59 | 885.9 |
| 20260504211014 | 70 | 245 | 0.0 | 2.0 | 0.00 | 0.00 | 0.00 | 62 | 885.9 |
| 20260504210014 | 70 | 247 | 0.0 | 3.0 | 0.00 | 0.00 | 0.00 | 62 | 885.3 |
| 20260504205034 | 71 | 250 | 0.0 | 3.0 | 0.00 | 0.00 | 0.00 | 63 | 885.3 |
| 20260504202917 | 71 | 251 | 0.0 | 2.0 | 0.00 | 0.00 | 0.00 | 63 | 885.3 |
| 20260504201857 | 72 | 252 | 0.0 | 0.0 | 0.00 | 0.00 | 0.00 | 61 | 885.3 |
| 20260504195731 | 70 | 250 | 0.0 | 3.0 | 0.00 | 0.00 | 0.00 | 65 | 885.3 |
| 20260504194657 | 71 | 248 | 0.0 | 0.0 | 0.00 | 0.00 | 0.00 | 65 | 885.3 |
| 20260504193630 | 70 | 249 | 0.0 | 0.0 | 0.00 | 0.00 | 0.00 | 63 | 885.3 |
| 20260504192648 | 70 | 229 | 0.0 | 2.0 | 0.00 | 0.00 | 0.00 | 63 | 885.3 |
| 20260504191633 | 70 | 231 | 0.0 | 0.0 | 0.00 | 0.00 | 0.00 | 66 | 885.3 |
| 20260504190558 | 68 | 227 | 0.0 | 2.0 | 0.00 | 0.00 | 0.00 | 67 | 885.3 |
| 20260504185621 | 67 | 215 | 0.0 | 2.0 | 0.00 | 0.00 | 0.00 | 71 | 885.3 |
| 20260504184646 | 65 | 215 | 0.0 | 0.0 | 0.00 | 0.00 | 0.00 | 72 | 885.3 |
| 20260504183624 | 66 | 207 | 0.0 | 2.0 | 0.00 | 0.00 | 0.00 | 71 | 885.3 |
| 20260504182601 | 68 | 196 | 0.0 | 0.0 | 0.00 | 0.00 | 0.00 | 67 | 885.3 |
| 20260504181614 | 65 | 196 | 0.0 | 1.0 | 0.00 | 0.00 | 0.00 | 65 | 885.3 |
| 20260504175414 | 67 | 142 | 0.0 | 1.0 | 0.00 | 0.00 | 0.00 | 58 | 958.8 |
| 20260504174438 | 64 | 142 | 0.0 | 0.0 | 0.00 | 0.00 | 0.00 | 62 | 958.8 |
| 20260504173450 | 63 | 129 | 0.0 | 0.0 | 0.00 | 0.00 | 0.00 | 65 | 958.8 |
| 20260504171247 | 59 | 115 | 2.0 | 0.0 | 0.00 | 0.00 | 0.00 | 73 | 958.8 |
| 20260504170219 | 60 | 115 | 1.0 | 0.0 | 0.00 | 0.00 | 0.00 | 70 | 958.8 |
| 20260504160202 | 56 | 115 | 0.0 | 0.0 | 0.00 | 0.00 | 0.00 | 78 | 1009.0 |
| 20260504151042 | 54 | 115 | 0.0 | 0.0 | 0.00 | 0.00 | 0.00 | 81 | 1008.7 |
| 20260504140811 | 50 | 115 | 0.0 | 0.0 | 0.00 | 0.00 | 0.00 | 87 | 1008.4 |
| 20260504130640 | 49 | 115 | 0.0 | 12.0 | 0.00 | 0.00 | 0.00 | 86 | 1008.0 |
| 20260504110457 | 50 | 115 | 0.0 | 0.0 | 0.00 | 0.00 | 0.00 | 86 | 1008.0 |
| 20260504090131 | 52 | 115 | 0.0 | 0.0 | 0.00 | 0.00 | 0.00 | 78 | 1007.7 |
| 20260504081223 | 53 | 115 | 0.0 | 0.0 | 0.00 | 0.00 | 0.00 | 76 | 1007.6 |
| 20260504080207 | 53 | 115 | 0.0 | 0.0 | 0.00 | 0.00 | 0.00 | 75 | 1007.6 |